Location: Asheville, NC
(35.6000°N, 82.5500°W)
Time: 14:28:41

HO-68 - Pass Details

Date: 12 January 2018
Orbit: 1193 x 1204 km, 100.1° (Epoch: 17 March)

Event Time Altitude Azimuth Distance (km) Brightness Sun altitude
Rises 18:07:42 0° 148° (SSE) 4,089 ? -6.4°
Reaches altitude 10° 18:10:23 10° 143° (SE) 3,126 ? -6.9°
Maximum altitude 18:17:15 53° 69° (ENE) 1,445 ? -8.2°
Drops below altitude 10° 18:24:09 10° 356° (N) 3,134 ? -9.5°
Sets 18:26:49 0° 351° (N) 4,100 ? -10.0°
